Retour au catalogue

Sitro-AIS-60

ActifCommunicationsSSO
NORAD 67260·PAYLOAD·🇷🇺 Russia

Lancé Dec 28, 2025 depuis Vostochny Cosmodrome

Loading…

Prochains Passages (prochaines 24 heures)

TLE

FraisSource: Space-Track

Époque: Sep 14, 2026, 15:10 UTC

1 67260U 25313N   26257.63213456  .00005551  00000-0  23733-3 0  9994
2 67260  97.3872 330.7165 0014534  54.2342 306.0243 15.23150553 39551

Suivez Sitro-AIS-60 en temps réel avec AllMySat

Download on the App Store